N216TB TJPS-TIST

Flight info

Callsign N216TB
Flight time 0h 33m
Altitude 7000
Route DCT CLAYO DCT SANLO DCT LODZI DCT KUTHO DCT JAQYY DCT
Aircraft K100/L-L/C

Departure

Time 2026-04-24 14:04
Airport Mercedita International Airport (TJPS)

Arrival

Time 2026-04-24 14:38
Airport Cyril E. King Airport (TIST)
Time Latitude Longitude Altitude Speed Heading
2026-04-24 13:52 18.01009 -66.56301 33 ft 0 kts 319°
2026-04-24 14:01 18.01006 -66.56298 33 ft 5 kts 241°
2026-04-24 14:01 18.00977 -66.56378 33 ft 18 kts 281°
2026-04-24 14:01 18.01029 -66.56537 34 ft 28 kts 290°
2026-04-24 14:02 18.01088 -66.56726 34 ft 9 kts 283°
2026-04-24 14:02 18.01103 -66.56781 34 ft 2 kts 290°
2026-04-24 14:02 18.01104 -66.56827 34 ft 3 kts 224°
2026-04-24 14:02 18.01098 -66.56831 34 ft 0 kts 206°
2026-04-24 14:03 18.01083 -66.56836 34 ft 7 kts 199°
2026-04-24 14:03 18.01021 -66.56851 34 ft 11 kts 163°
2026-04-24 14:03 18.00990 -66.56816 34 ft 0 kts 106°
2026-04-24 14:03 18.00990 -66.56815 34 ft 4 kts 106°
2026-04-24 14:04 18.00874 -66.56465 35 ft 91 kts 115°
2026-04-24 14:04 18.00636 -66.55743 379 ft 118 kts 111°
2026-04-24 14:04 18.00459 -66.54835 787 ft 136 kts 80°
2026-04-24 14:04 18.01074 -66.54107 1228 ft 144 kts 30°
2026-04-24 14:05 18.01875 -66.53488 1680 ft 144 kts 47°
2026-04-24 14:05 18.02408 -66.52572 2128 ft 152 kts 69°
2026-04-24 14:05 18.02828 -66.51535 2552 ft 153 kts 68°
2026-04-24 14:05 18.03243 -66.50505 3031 ft 156 kts 68°
2026-04-24 14:06 18.03670 -66.49466 3461 ft 155 kts 68°
2026-04-24 14:06 18.04094 -66.48422 3873 ft 152 kts 69°
2026-04-24 14:06 18.04503 -66.47404 4316 ft 153 kts 69°
2026-04-24 14:06 18.04917 -66.46362 4764 ft 156 kts 69°
2026-04-24 14:07 18.05332 -66.45334 5183 ft 155 kts 70°
2026-04-24 14:07 18.05736 -66.44303 5618 ft 151 kts 73°
2026-04-24 14:07 18.06036 -66.43221 6054 ft 154 kts 76°
2026-04-24 14:07 18.06344 -66.42150 6505 ft 154 kts 76°
2026-04-24 14:08 18.06649 -66.41078 6932 ft 152 kts 76°
2026-04-24 14:08 18.06966 -66.39952 7030 ft 170 kts 75°
2026-04-24 14:08 18.07311 -66.38716 7029 ft 181 kts 75°
2026-04-24 14:08 18.07676 -66.37433 7032 ft 184 kts 75°
2026-04-24 14:09 18.08047 -66.36139 7035 ft 186 kts 75°
2026-04-24 14:09 18.08414 -66.34841 7016 ft 189 kts 75°
2026-04-24 14:09 18.08790 -66.33516 7009 ft 189 kts 75°
2026-04-24 14:09 18.09166 -66.32189 7008 ft 189 kts 75°
2026-04-24 14:10 18.09414 -66.31314 7011 ft 189 kts 75°
2026-04-24 14:10 18.09914 -66.29550 7002 ft 188 kts 75°
2026-04-24 14:10 18.10286 -66.28236 7015 ft 188 kts 75°
2026-04-24 14:10 18.10658 -66.26904 7002 ft 189 kts 75°
2026-04-24 14:11 18.11033 -66.25591 7001 ft 187 kts 75°
2026-04-24 14:11 18.11404 -66.24287 7004 ft 186 kts 75°
2026-04-24 14:11 18.12137 -66.21685 7001 ft 187 kts 75°
2026-04-24 14:12 18.12505 -66.20380 7002 ft 186 kts 75°
2026-04-24 14:12 18.12872 -66.19080 7005 ft 186 kts 75°
2026-04-24 14:12 18.13241 -66.17777 7006 ft 186 kts 75°
2026-04-24 14:12 18.13609 -66.16474 7007 ft 186 kts 75°
2026-04-24 14:13 18.13975 -66.15169 7001 ft 186 kts 75°
2026-04-24 14:13 18.14342 -66.13867 7004 ft 186 kts 75°
2026-04-24 14:13 18.14708 -66.12579 7003 ft 186 kts 75°
2026-04-24 14:13 18.15075 -66.11274 7002 ft 186 kts 75°
2026-04-24 14:14 18.15442 -66.09971 7004 ft 186 kts 75°
2026-04-24 14:14 18.15809 -66.08664 7003 ft 186 kts 75°
2026-04-24 14:14 18.16546 -66.06056 7003 ft 186 kts 76°
2026-04-24 14:15 18.16909 -66.04755 7004 ft 185 kts 75°
2026-04-24 14:15 18.17276 -66.03458 7008 ft 185 kts 75°
2026-04-24 14:15 18.17641 -66.02158 7007 ft 185 kts 75°
2026-04-24 14:15 18.18008 -66.00856 7006 ft 186 kts 75°
2026-04-24 14:16 18.18369 -65.99567 7007 ft 186 kts 75°
2026-04-24 14:16 18.18737 -65.98259 7010 ft 187 kts 75°
2026-04-24 14:16 18.19106 -65.96949 7009 ft 187 kts 75°
2026-04-24 14:17 18.19840 -65.94337 7008 ft 186 kts 75°
2026-04-24 14:17 18.20179 -65.93027 7008 ft 185 kts 79°
2026-04-24 14:17 18.20747 -65.90384 7009 ft 185 kts 78°
2026-04-24 14:18 18.21032 -65.89081 7007 ft 185 kts 79°
2026-04-24 14:18 18.21316 -65.87763 7006 ft 185 kts 78°
2026-04-24 14:18 18.21601 -65.86441 7006 ft 186 kts 78°
2026-04-24 14:18 18.21888 -65.85115 7006 ft 186 kts 79°
2026-04-24 14:19 18.22078 -65.84235 7005 ft 186 kts 78°
2026-04-24 14:19 18.22461 -65.82462 7008 ft 186 kts 78°
2026-04-24 14:19 18.22749 -65.81131 7007 ft 186 kts 78°
2026-04-24 14:19 18.23035 -65.79805 7004 ft 186 kts 78°
2026-04-24 14:20 18.23319 -65.78494 7008 ft 186 kts 79°
2026-04-24 14:20 18.23605 -65.77163 7006 ft 186 kts 79°
2026-04-24 14:20 18.23889 -65.75835 7004 ft 186 kts 78°
2026-04-24 14:20 18.24178 -65.74504 7013 ft 187 kts 79°
2026-04-24 14:21 18.24467 -65.73163 7009 ft 189 kts 79°
2026-04-24 14:21 18.24754 -65.71823 7012 ft 188 kts 78°
2026-04-24 14:21 18.24944 -65.70933 7005 ft 187 kts 78°
2026-04-24 14:21 18.25232 -65.69602 7002 ft 186 kts 79°
2026-04-24 14:22 18.25610 -65.67836 7004 ft 187 kts 78°
2026-04-24 14:22 18.25900 -65.66507 7003 ft 186 kts 79°
2026-04-24 14:22 18.26474 -65.63827 7003 ft 189 kts 79°
2026-04-24 14:23 18.26761 -65.62483 7005 ft 188 kts 78°
2026-04-24 14:23 18.26952 -65.61600 7005 ft 187 kts 79°
2026-04-24 14:23 18.27231 -65.60264 7004 ft 186 kts 82°
2026-04-24 14:23 18.27401 -65.58922 7003 ft 185 kts 84°
2026-04-24 14:24 18.27583 -65.57582 7006 ft 185 kts 83°
2026-04-24 14:24 18.27767 -65.56226 6885 ft 191 kts 84°
2026-04-24 14:24 18.28014 -65.54374 6635 ft 193 kts 84°
2026-04-24 14:24 18.28202 -65.52979 6460 ft 192 kts 84°
2026-04-24 14:25 18.28328 -65.52038 6322 ft 192 kts 84°
2026-04-24 14:25 18.28510 -65.50667 6126 ft 191 kts 84°
2026-04-24 14:25 18.28694 -65.49283 5930 ft 191 kts 84°
2026-04-24 14:25 18.28878 -65.47904 5740 ft 190 kts 84°
2026-04-24 14:26 18.29063 -65.46525 5535 ft 190 kts 84°
2026-04-24 14:26 18.29244 -65.45154 5343 ft 189 kts 84°
2026-04-24 14:26 18.29426 -65.43790 5146 ft 188 kts 84°
2026-04-24 14:26 18.29607 -65.42430 4958 ft 187 kts 84°
2026-04-24 14:27 18.29788 -65.41072 4763 ft 187 kts 84°
2026-04-24 14:27 18.29966 -65.39721 4566 ft 186 kts 84°
2026-04-24 14:27 18.30143 -65.38395 4367 ft 186 kts 83°
2026-04-24 14:27 18.30321 -65.37049 4172 ft 186 kts 84°
2026-04-24 14:28 18.30500 -65.35701 3974 ft 186 kts 84°
2026-04-24 14:28 18.30678 -65.34354 3788 ft 186 kts 84°
2026-04-24 14:28 18.30856 -65.33008 3588 ft 186 kts 84°
2026-04-24 14:28 18.31034 -65.31666 3393 ft 184 kts 84°
2026-04-24 14:29 18.31213 -65.30319 3222 ft 189 kts 84°
2026-04-24 14:29 18.31389 -65.28954 3025 ft 190 kts 83°
2026-04-24 14:29 18.31561 -65.27618 2821 ft 178 kts 84°
2026-04-24 14:29 18.31737 -65.26377 2798 ft 167 kts 84°
2026-04-24 14:30 18.31899 -65.25175 2792 ft 165 kts 83°
2026-04-24 14:30 18.32052 -65.23994 2796 ft 162 kts 84°
2026-04-24 14:30 18.32353 -65.22858 2794 ft 161 kts 78°
2026-04-24 14:30 18.32476 -65.21689 2798 ft 161 kts 87°
2026-04-24 14:31 18.32559 -65.20515 2800 ft 161 kts 87°
2026-04-24 14:31 18.32628 -65.19336 2801 ft 161 kts 89°
2026-04-24 14:31 18.32678 -65.18176 2802 ft 161 kts 89°
2026-04-24 14:31 18.32743 -65.17001 2807 ft 161 kts 89°
2026-04-24 14:32 18.32802 -65.15827 2802 ft 161 kts 89°
2026-04-24 14:32 18.32860 -65.14675 2800 ft 153 kts 89°
2026-04-24 14:32 18.32912 -65.13599 2777 ft 144 kts 88°
2026-04-24 14:32 18.32964 -65.12559 2611 ft 139 kts 88°
2026-04-24 14:33 18.33011 -65.11594 2446 ft 127 kts 88°
2026-04-24 14:33 18.33058 -65.10685 2277 ft 123 kts 88°
2026-04-24 14:33 18.33102 -65.09808 2125 ft 121 kts 89°
2026-04-24 14:33 18.33146 -65.08923 1964 ft 121 kts 88°
2026-04-24 14:34 18.33189 -65.08037 1809 ft 121 kts 88°
2026-04-24 14:34 18.33232 -65.07169 1659 ft 111 kts 88°
2026-04-24 14:34 18.33270 -65.06442 1515 ft 90 kts 88°
2026-04-24 14:34 18.33299 -65.05808 1397 ft 85 kts 89°
2026-04-24 14:35 18.33334 -65.05157 1297 ft 96 kts 91°
2026-04-24 14:35 18.33364 -65.04425 1166 ft 101 kts 88°
2026-04-24 14:35 18.33402 -65.03696 1030 ft 95 kts 89°
2026-04-24 14:35 18.33440 -65.03055 892 ft 85 kts 86°
2026-04-24 14:36 18.33500 -65.02470 807 ft 78 kts 83°
2026-04-24 14:36 18.33560 -65.01896 685 ft 78 kts 87°
2026-04-24 14:36 18.33585 -65.01328 568 ft 79 kts 91°
2026-04-24 14:36 18.33605 -65.00751 563 ft 79 kts 92°
2026-04-24 14:37 18.33632 -65.00125 349 ft 91 kts 91°
2026-04-24 14:37 18.33648 -64.99504 270 ft 82 kts 95°
2026-04-24 14:37 18.33675 -64.98906 188 ft 84 kts 92°
2026-04-24 14:37 18.33696 -64.98292 82 ft 84 kts 93°
2026-04-24 14:38 18.33718 -64.97732 26 ft 68 kts 93°
2026-04-24 14:38 18.33724 -64.97320 22 ft 34 kts 90°
2026-04-24 14:38 18.33738 -64.97163 21 ft 28 kts 88°
2026-04-24 14:38 18.33744 -64.96937 16 ft 32 kts 87°
2026-04-24 14:39 18.33754 -64.96790 13 ft 15 kts 88°
2026-04-24 14:39 18.33759 -64.96712 13 ft 12 kts 71°
2026-04-24 14:39 18.33795 -64.96688 13 ft 0 kts
2026-04-24 14:40 18.33798 -64.96688 13 ft 2 kts
2026-04-24 14:40 18.33841 -64.96690 14 ft 10 kts 355°
2026-04-24 14:40 18.33898 -64.96694 14 ft 6 kts 339°
2026-04-24 14:40 18.33901 -64.96727 15 ft 7 kts 189°
2026-04-24 14:41 18.33891 -64.96728 15 ft 0 kts 176°